Weather History for Beaumont, TX

Change the Weather History Date:

Friday, October 14, 2011

  Actual Average Record
Temperature  
Mean Temperature 73 °F 71 °F  
Max Temperature 87 °F 81 °F 91 °F (1954)
Min Temperature 58 °F 61 °F 45 °F (1969)
Degree Days  
Heating Degree Days 0 1  
Month to date heating degree days 0 4  
Since 1 July heating degree days 0 5  
Cooling Degree Days 8 7  
Month to date cooling degree days 127 116  
Year to date cooling degree days 3286 2702  
Growing Degree Days 23 (Base 50)    
Moisture  
Dew Point 54 °F    
Average Humidity 63    
Maximum Humidity 100    
Minimum Humidity 25    
Precipitation  
Precipitation 0.00 in 0.18 in 9.26 in (1902)
Month to date precipitation 0.31 2.47  
Year to date precipitation 25.21 47.67  
Snow  
Snow 0.00 in 0.00 in 0.00 in ()
Month to date snowfall 0.0 0.0  
Since 1 July snowfall 0.0 0.0  
Since 1 September snowfall 0.0 0.0  
Snow Depth 0.00 in    
Sea Level Pressure  
Sea Level Pressure 29.96 in    
Wind  
Wind Speed 6 mph (ENE)    
Max Wind Speed 13 mph    
Max Gust Speed 18 mph    
Visibility 8 miles    
Events Fog    
T = Trace of Precipitation, MM = Missing Value Source: NWS Daily Summary

Daily Weather History Graph

Daily Weather History Graph

Search for Another Location

Airport:

Trip Planner

Search our weather history database for the weather conditions in past years. The results will help you decide how hot, cold, wet, or windy it might be!

Date:

Astronomy

Oct. 14, 2011 Rise Set
Actual Time 7:17 AM CDT 6:46 PM CDT
Civil Twilight 6:53 AM CDT 7:10 PM CDT
Nautical Twilight 6:25 AM CDT 7:38 PM CDT
Astronomical Twilight 5:57 AM CDT 8:06 PM CDT
Moon 8:16 PM CDT (10/14) 9:31 AM CDT (10/14)
Length of Visible Light 12h 17m
Length of Day
11h 29m
Waning Gibbous, 94% of the Moon is Illuminated
Oct 14
Waning Gibbous
Oct 19
Last Quarter
Oct 26
New
Nov 2
First Quarter
Nov 10
Full

Hourly Weather History & Observations

Time (CDT) Temp. Heat Index Dew Point Humidity Pressure Visibility Wind Dir Wind Speed Gust Speed Precip Events Conditions
12:53 AM 64.9 °F - 46.0 °F 50% 29.91 in 10.0 mi NNW 8.1 mph - N/A   Clear
1:53 AM 64.0 °F - 46.0 °F 52% 29.91 in 10.0 mi North 8.1 mph - N/A   Clear
2:53 AM 63.0 °F - 46.0 °F 54% 29.92 in 10.0 mi North 9.2 mph - N/A   Clear
3:53 AM 62.1 °F - 48.0 °F 60% 29.92 in 10.0 mi North 8.1 mph - N/A   Clear
4:53 AM 62.1 °F - 48.0 °F 60% 29.92 in 10.0 mi North 8.1 mph - N/A   Clear
5:53 AM 63.0 °F - 46.9 °F 56% 29.93 in 10.0 mi NNE 6.9 mph - N/A   Clear
6:53 AM 60.1 °F - 46.0 °F 60% 29.94 in 10.0 mi NNE 4.6 mph - N/A   Clear
7:53 AM 63.0 °F - 48.9 °F 60% 29.95 in 10.0 mi NNE 3.5 mph - N/A   Clear
8:53 AM 70.0 °F - 48.9 °F 47% 29.97 in 10.0 mi NE 5.8 mph - 0.01 in   Clear
9:53 AM 75.9 °F - 50.0 °F 40% 29.99 in 10.0 mi ENE 8.1 mph - N/A   Clear
10:53 AM 80.6 °F 80.3 °F 53.6 °F 39% 29.99 in 10.0 mi East 11.5 mph - N/A   Unknown
11:53 AM 82.9 °F - 52.0 °F 34% 29.99 in 10.0 mi East 10.4 mph - N/A   Clear
12:53 PM 84.9 °F - 50.0 °F 30% 29.97 in 10.0 mi ESE 8.1 mph - 0.01 in   Clear
1:53 PM 86.0 °F - 48.2 °F 27% 29.95 in 10.0 mi NNE 8.1 mph - N/A   Clear
2:53 PM 84.9 °F - 48.0 °F 28% 29.94 in 10.0 mi SSW 5.8 mph - N/A   Clear
3:53 PM 86.0 °F - 46.9 °F 26% 29.93 in 10.0 mi ESE 4.6 mph - N/A   Clear
4:53 PM 82.9 °F - 52.0 °F 34% 29.93 in 10.0 mi SSE 8.1 mph - N/A   Clear
5:53 PM 80.1 °F 79.9 °F 53.1 °F 39% 29.94 in 10.0 mi SSE 9.2 mph - N/A   Clear
6:53 PM 73.0 °F - 57.9 °F 59% 29.94 in 10.0 mi South 6.9 mph - N/A   Clear
7:53 PM 69.8 °F - 60.8 °F 73% 29.96 in 10.0 mi Calm Calm - N/A   Clear
8:53 PM 66.0 °F - 63.0 °F 90% 29.97 in 10.0 mi SW 4.6 mph - N/A   Clear
9:53 PM 64.9 °F - 63.0 °F 93% 29.99 in 6.0 mi South 3.5 mph - N/A   Clear
10:53 PM 64.0 °F - 62.1 °F 93% 30.00 in 2.5 mi Calm Calm - N/A   Clear
11:04 PM 64.4 °F - 62.6 °F 94% 30.00 in 1.5 mi Calm Calm - N/A   Clear
11:20 PM 62.6 °F - 62.6 °F 100% 30.00 in 1.2 mi Calm Calm - N/A   Clear
11:33 PM 62.6 °F - 62.6 °F 100% 30.00 in 0.5 mi Calm Calm - N/A Fog Fog
11:51 PM 62.6 °F - 62.6 °F 100% 30.00 in 1.0 mi Calm Calm - N/A   Clear
11:53 PM 62.6 °F - 62.6 °F 100% 30.00 in 0.8 mi Calm Calm - N/A   Clear